Погода в Джалилабаде

Азербайджан     39°12′37″N   48°30′23″E
темп.,
°C
ветер,
м/с
пор.,
м/с
влажн.,
%
обл.,
%
осадки,
мм/ч
давл.,
гПа
погр.,
м
15 апреля, чт
чт1501:00+12в116530 0.0 101712
04:00+10ю22741 0.0 101825
07:00+11ю11740 0.0 101925
10:00+18вюв21560 0.0 1019473
13:00+22вюв22375 0.0 10171237
16:00+21юв545166 0.0 1016796
19:00+14юв477780 0.0 1016156
22:00+11юв3585100 0.0 101891
16 апреля, пт
пт1601:00+11вюв2289100 0.0 101825
04:00+11вюв1188100 0.0 101819
07:00+11юв248466 0.0 101990
10:00+17вюв34605 0.0 1020582
13:00+21юв55480 0.0 1019959
16:00+19юв78495 0.0 1018698
19:00+14вюв49734 0.0 1018236
22:00+10ююв228712 0.0 102028
17 апреля, сб
сб1701:00+10ююз11861 0.0 102010
04:00+10з11845 0.0 101910
07:00+11сз11805 0.0 102012
10:00+18вюв225862 0.0 1020454
13:00+23вюв43464 0.0 1018892
16:00+21юв55495 0.0 1017649
19:00+15юв47735 0.0 1017164
22:00+12вюв1283100 0.0 101831
18 апреля, вс
вс1801:00+11ююв228745 0.0 101831
04:00+10вюв118789 0.0 101911
07:00+12ююв228445 0.0 101947
10:00+18юв575588 0.0 1019687
13:00+20юв775180 0.0 1017864
16:00+19юв555263 0.0 1015669
19:00+14юв3672100 0.0 1014132
22:00+12ююв1278100 0.0 101521
19 апреля, пн
пн1901:00+14з1281100 0.1 101614
04:00+13св2284100 0.2 101521
07:00+13ююв238483 0.0 101772
10:00+21ююв225893 0.0 1017407
13:00+24вюв545287 0.0 1015836
16:00+22юв665664 0.0 1014550
19:00+16юв4775100 0.0 1013186
22:00+12вюв238799 0.0 101466